Time,TemperatureF,DewpointF,PressureIn,WindDirection,WindDirectionDegrees,WindSpeedMPH,WindSpeedGustMPH,Humidity,HourlyPrecipIn,Conditions,Clouds,dailyrainin,SoftwareType,DateUTC
2013-01-27 00:00:00,12.9,4.3,30.33,WSW,249,1.0,6.0,68,0.00,,,0.00,Wunderground v.1.13,2013-01-27 05:00:00,
2013-01-27 00:30:00,12.4,4.2,30.34,WSW,249,0.0,6.0,69,0.00,,,0.00,Wunderground v.1.13,2013-01-27 05:30:00,
2013-01-27 01:00:00,11.7,3.5,30.35,WSW,249,0.0,6.0,69,0.00,,,0.00,Wunderground v.1.13,2013-01-27 06:00:00,
2013-01-27 01:30:00,10.9,2.7,30.36,West,271,2.0,2.0,69,0.00,,,0.00,Wunderground v.1.13,2013-01-27 06:30:00,
2013-01-27 02:00:00,10.2,2.7,30.37,West,271,0.0,6.0,71,0.00,,,0.00,Wunderground v.1.13,2013-01-27 07:00:00,
2013-01-27 02:30:00,9.3,1.8,30.39,West,281,2.0,6.0,71,0.00,,,0.00,Wunderground v.1.13,2013-01-27 07:30:00,
2013-01-27 03:00:00,8.8,1.0,30.40,West,281,1.0,1.0,70,0.00,,,0.00,Wunderground v.1.13,2013-01-27 08:00:00,
2013-01-27 03:30:00,8.3,0.8,30.40,West,281,1.0,6.0,71,0.00,,,0.00,Wunderground v.1.13,2013-01-27 08:30:00,
2013-01-27 04:00:00,7.9,0.1,30.41,WNW,294,1.0,6.0,70,0.00,,,0.00,Wunderground v.1.13,2013-01-27 09:00:00,
2013-01-27 04:30:00,7.2,-0.8,30.41,WNW,294,1.0,6.0,69,0.00,,,0.00,Wunderground v.1.13,2013-01-27 09:30:00,
2013-01-27 05:00:00,6.9,-0.8,30.42,WNW,296,0.0,6.0,70,0.00,,,0.00,Wunderground v.1.13,2013-01-27 10:00:00,
2013-01-27 05:30:00,6.0,-2.0,30.44,WNW,296,0.0,6.0,69,0.00,,,0.00,Wunderground v.1.13,2013-01-27 10:30:00,
2013-01-27 06:00:00,5.2,-2.8,30.45,WNW,296,0.0,6.0,69,0.00,,,0.00,Wunderground v.1.13,2013-01-27 11:00:00,
2013-01-27 06:30:00,4.8,-3.1,30.46,WNW,296,0.0,6.0,69,0.00,,,0.00,Wunderground v.1.13,2013-01-27 11:30:00,
2013-01-27 07:00:00,4.8,-3.1,30.47,WNW,296,0.0,6.0,69,0.00,,,0.00,Wunderground v.1.13,2013-01-27 12:00:00,
2013-01-27 07:30:00,4.5,-3.7,30.47,WNW,296,0.0,6.0,68,0.00,,,0.00,Wunderground v.1.13,2013-01-27 12:30:00,
2013-01-27 08:00:00,4.5,-4.1,30.49,WNW,296,0.0,6.0,67,0.00,,,0.00,Wunderground v.1.13,2013-01-27 13:00:00,
2013-01-27 08:30:00,4.1,-4.1,30.50,WNW,296,0.0,6.0,68,0.00,,,0.00,Wunderground v.1.13,2013-01-27 13:30:00,
2013-01-27 09:00:00,6.1,-2.8,30.51,WNW,296,1.0,6.0,66,0.00,,,0.00,Wunderground v.1.13,2013-01-27 14:00:00,
2013-01-27 09:30:00,7.9,-2.8,30.52,WNW,296,1.0,6.0,61,0.00,,,0.00,Wunderground v.1.13,2013-01-27 14:30:00,
2013-01-27 10:00:00,9.2,-4.1,30.53,WNW,296,1.0,1.0,54,0.00,,,0.00,Wunderground v.1.13,2013-01-27 15:00:00,
2013-01-27 10:30:00,10.2,-4.4,30.53,WNW,291,1.0,6.0,51,0.00,,,0.00,Wunderground v.1.13,2013-01-27 15:30:00,
2013-01-27 11:00:00,12.1,-3.4,30.53,WNW,284,1.0,1.0,49,0.00,,,0.00,Wunderground v.1.13,2013-01-27 16:00:00,
2013-01-27 11:30:00,14.0,-3.5,30.53,NW,304,1.0,6.0,45,0.00,,,0.00,Wunderground v.1.13,2013-01-27 16:30:00,
2013-01-27 12:00:00,15.4,-4.1,30.52,WNW,298,1.0,1.0,41,0.00,,,0.00,Wunderground v.1.13,2013-01-27 17:00:00,
2013-01-27 12:30:00,14.9,-3.1,30.50,NW,315,2.0,6.0,44,0.00,,,0.00,Wunderground v.1.13,2013-01-27 17:30:00,
2013-01-27 13:00:00,16.1,-3.5,30.49,WNW,286,1.0,1.0,41,0.00,,,0.00,Wunderground v.1.13,2013-01-27 18:00:00,
2013-01-27 13:30:00,16.5,-3.7,30.48,WNW,300,2.0,6.0,40,0.00,,,0.00,Wunderground v.1.13,2013-01-27 18:30:00,
2013-01-27 14:00:00,17.8,-5.3,30.47,WNW,292,1.0,6.0,35,0.00,,,0.00,Wunderground v.1.13,2013-01-27 19:00:00,
2013-01-27 14:30:00,17.7,-3.7,30.47,WNW,287,1.0,1.0,38,0.00,,,0.00,Wunderground v.1.13,2013-01-27 19:30:00,
2013-01-27 15:00:00,18.0,-4.5,30.48,West,269,2.0,2.0,36,0.00,,,0.00,Wunderground v.1.13,2013-01-27 20:00:00,
2013-01-27 15:30:00,18.0,-5.7,30.48,WSW,250,1.0,6.0,34,0.00,,,0.00,Wunderground v.1.13,2013-01-27 20:30:00,
2013-01-27 16:00:00,18.1,-4.4,30.47,WSW,255,1.0,6.0,36,0.00,,,0.00,Wunderground v.1.13,2013-01-27 21:00:00,
2013-01-27 16:30:00,16.7,-3.5,30.48,WSW,256,1.0,1.0,40,0.00,,,0.00,Wunderground v.1.13,2013-01-27 21:30:00,
2013-01-27 17:00:00,16.2,-2.9,30.50,WSW,256,0.0,6.0,42,0.00,,,0.00,Wunderground v.1.13,2013-01-27 22:00:00,
2013-01-27 17:30:00,15.2,-1.9,30.49,WSW,256,0.0,6.0,46,0.00,,,0.00,Wunderground v.1.13,2013-01-27 22:30:00,
2013-01-27 18:00:00,13.3,-1.5,30.49,WSW,256,0.0,6.0,51,0.00,,,0.00,Wunderground v.1.13,2013-01-27 23:00:00,
2013-01-27 18:30:00,12.1,-0.2,30.48,WSW,256,0.0,6.0,57,0.00,,,0.00,Wunderground v.1.13,2013-01-27 23:30:00,
2013-01-27 19:00:00,11.9,0.3,30.49,WSW,256,0.0,6.0,59,0.00,,,0.00,Wunderground v.1.13,2013-01-28 00:00:00,
2013-01-27 19:30:00,11.9,1.4,30.47,WSW,256,0.0,6.0,62,0.00,,,0.00,Wunderground v.1.13,2013-01-28 00:30:00,
2013-01-27 20:00:00,11.9,1.4,30.45,WSW,256,0.0,6.0,62,0.00,,,0.00,Wunderground v.1.13,2013-01-28 01:00:00,
2013-01-27 20:30:00,12.3,2.8,30.44,WSW,256,0.0,6.0,65,0.00,,,0.00,Wunderground v.1.13,2013-01-28 01:30:00,
2013-01-27 21:00:00,12.3,2.1,30.44,WSW,256,0.0,6.0,63,0.00,,,0.00,Wunderground v.1.13,2013-01-28 02:00:00,
2013-01-27 21:30:00,12.4,1.1,30.44,WSW,256,0.0,6.0,60,0.00,,,0.00,Wunderground v.1.13,2013-01-28 02:30:00,
2013-01-27 22:00:00,11.7,0.5,30.44,WSW,256,0.0,6.0,60,0.00,,,0.00,Wunderground v.1.13,2013-01-28 03:00:00,
2013-01-27 22:30:00,11.7,1.9,30.44,WSW,256,0.0,6.0,64,0.00,,,0.00,Wunderground v.1.13,2013-01-28 03:30:00,
2013-01-27 23:00:00,11.7,2.2,30.42,WSW,256,0.0,6.0,65,0.00,,,0.00,Wunderground v.1.13,2013-01-28 04:00:00,
2013-01-27 23:30:00,12.8,1.9,30.42,WSW,256,0.0,6.0,61,0.00,,,0.00,Wunderground v.1.13,2013-01-28 04:30:00,